This demonstration page uses our WeatherBlox Daily Observations layout. Learn more.

Left ArrowRight Arrow

Hourly Observations for October 23, 2021

Temp ( °F °C ) Dew Point ( °F °C ) Humidity (%) Winds ( mph kmh ) Pressure ( in mb ) Visibility ( mi km ) Precip ( " mm )
12:53 am 00:53 Clear 55 12.8 49 9.4 80 80 NNW 7 11 30.03 1017 10 16 0.00 0.00
1:53 am 01:53 Clear 53 11.7 49 9.4 86 86 W 5 7 30.03 1017 10 16 0.00 0.00
2:53 am 02:53 Clear 52 11.1 48 8.9 86 86 W 6 9 30.03 1017 10 16 0.00 0.00
3:53 am 03:53 Clear 50 10 47 8.3 89 89 Calm 30.03 1017 10 16 0.00 0.00
4:53 am 04:53 Clear 50 10 47 8.3 89 89 W 5 7 30.02 1017 10 16 0.00 0.00
5:53 am 05:53 Clear 50 10 46 7.8 86 86 Calm 30.02 1017 10 16 0.00 0.00
6:53 am 06:53 Clear 49 9.4 45 7.2 86 86 Calm 30.04 1017 10 16 0.00 0.00
7:53 am 07:53 Sunny 49 9.4 45 7.2 86 86 Calm 30.05 1018 10 16 0.00 0.00
8:53 am 08:53 Sunny 52 11.1 46 7.8 80 80 NW 3 6 30.07 1018 10 16 0.00 0.00
9:53 am 09:53 Sunny 56 13.3 47 8.3 72 72 N 8 13 30.08 1019 10 16 0.00 0.00
10:53 am 10:53 Sunny 62 16.7 47 8.3 58 58 NNW 3 6 30.08 1019 10 16 0.00 0.00
11:53 am 11:53 Sunny 65 18.3 46 7.8 51 51 W 5 7 30.09 1019 10 16 0.00 0.00
12:53 pm 12:53 Sunny 68 20 46 7.8 45 45 W 7 11 30.07 1018 10 16 0.00 0.00
1:53 pm 13:53 Sunny 71 21.7 45 7.2 39 39 Calm 30.05 1018 10 16 0.00 0.00
2:53 pm 14:53 Sunny 72 22.2 45 7.2 38 38 SW 3 6 30.02 1017 10 16 0.00 0.00
3:53 pm 15:53 Sunny 74 23.3 46 7.8 37 37 VRB 3 6 30.02 1017 10 16 0.00 0.00
4:53 pm 16:53 Sunny 75 23.9 46 7.8 36 36 WNW 3 6 30.02 1017 10 16 0.00 0.00
5:53 pm 17:53 Sunny 73 22.8 44 6.7 35 35 WNW 5 7 30.02 1017 10 16 0.00 0.00
6:53 pm 18:53 Sunny 65 18.3 49 9.4 56 56 NNE 3 6 30.04 1017 10 16 0.00 0.00
7:53 pm 19:53 Clear 60 15.6 51 10.6 72 72 Calm 30.05 1018 10 16 0.00 0.00
8:53 pm 20:53 Clear 58 14.4 52 11.1 81 81 Calm 30.06 1018 10 16 0.00 0.00
9:53 pm 21:53 Clear 54 12.2 51 10.6 90 90 Calm 30.05 1018 10 16 0.00 0.00
10:53 pm 22:53 Clear 54 12.2 50 10 87 87 Calm 30.05 1018 10 16 0.00 0.00
11:53 pm 23:53 Clear 52 11.1 50 10 93 93 Calm 30.06 1018 10 16 0.00 0.00

Powered by AerisWeather